Regional Weather Roundup
Issued by NWS

Home | Current Version | Previous Version | Text Only | Print | Product List | Glossary Off
Versions: 1 2 3 4 5 6 7 8 9 10 11 12 13 14 15 16 17 18 19 20 21 22 23 24 25 26 27 28 29 30 31 32 33 34 35 36 37 38 39 40 41 42 43 44 45 46 47 48 49 50

000
ASUS43 KLSX 032110
RWRMO

WEATHER SUMMARY FOR MISSOURI
NATIONAL WEATHER SERVICE SPRINGFIELD MO
400 PM CDT TUE MAY 03 2016

NOTE: "FAIR" INDICATES FEW OR NO CLOUDS BELOW 12,000 FEET WITH NO
       SIGNIFICANT WEATHER AND/OR OBSTRUCTIONS TO VISIBILITY.
       CURRENT SKY AND/OR WEATHER CONDITIONS ARE NOT AVAILABLE FOR
       CHILLICOTHE AND FARMINGTON.

MOZ001>031-035>038-043-044-053-054-032200-
...NORTHERN AND WESTERN MISSOURI...

CITY           SKY/WX    TMP DP  RH WIND       PRES   REMARKS
KANSAS CTY INT MOSUNNY   67  39  35 VRB3      29.99F
KANSAS C DTWN  MOSUNNY   70  40  33 VRB5      29.98F
LEE`S SUMMIT   SUNNY     66  39  37 NW7       30.00F
ST JOSEPH      MOSUNNY   68  40  35 W5        29.98F
CHILLICOTHE      N/A     69  43  38 VRB7      29.97F
KIRKSVILLE     PTSUNNY   65  40  39 NW13G18   29.95F

$$
MOZ066>068-077>081-088>096-101>105-032200-
...SOUTHWEST MISSOURI...

CITY           SKY/WX    TMP DP  RH WIND       PRES   REMARKS
SPRINGFIELD    MOSUNNY   63  40  42 NW9       30.02F
JOPLIN         MOSUNNY   65  43  44 NW6       30.04F

$$
MOZ032>034-039>042-045>050-055>058-069>072-032200-
...CENTRAL MISSOURI...

CITY           SKY/WX    TMP DP  RH WIND       PRES   REMARKS
COLUMBIA       PTSUNNY   67  40  37 NW13      29.98F
JEFFERSON CITY MOSUNNY   65  40  39 N8        29.98F
ROLLA          PTSUNNY   61  45  55 NW7       29.98F
SEDALIA        MOSUNNY   67  43  41 NW9       30.01F
WHITEMAN AFB   MOSUNNY   67  41  38 NW10      29.98F
OSAGE BEACH    PTSUNNY   64  37  36 N6        30.01F

$$
MOZ051-052-059>065-032200-
...EAST CENTRAL MISSOURI...

CITY           SKY/WX    TMP DP  RH WIND       PRES   REMARKS
ST LOUIS INTL  PTSUNNY   63  43  48 NW6       29.98F
SPIRIT OF STL  CLOUDY    62  45  53 W8        29.97F
ST CHARLES     CLOUDY    62  45  53 W8        29.97F

$$
MOZ072>076-082>087-097>100-106>115-032200-
...SOUTH CENTRAL AND SOUTHEAST MISSOURI...

CITY           SKY/WX    TMP DP  RH WIND       PRES   REMARKS
CAPE GIRARDEAU PTSUNNY   65  47  52 W5        29.97F
FARMINGTON     CLOUDY    61  46  57 N7        29.98F
POPLAR BLUFF   CLOUDY    64  49  57 NE8       29.97F
WEST PLAINS    PTSUNNY   63  38  39 NW12      30.00F

$$




USA.gov is the U.S. government's official web portal to all federal, state and local government web resources and services.